Location: Staunton
(38.1490°N, 79.0720°W)
Time: 14:47:33
(UTC-04:00)

ISS - Pass Details

Date: 25 July 2017
Orbit: 400 x 408 km, 51.6° (Epoch: 21 July)

Event Time Altitude Azimuth Distance (km) Brightness Sun altitude
Exits shadow 05:07:45 -1° 299° (WNW) 2,401 -0.2 -11.8°
Rises 05:07:59 0° 298° (WNW) 2,312 -0.2 -11.8°
Reaches altitude 10° 05:10:17 10° 284° (WNW) 1,451 -1.4 -11.4°
Maximum altitude 05:12:59 24° 228° (SW) 867 -2.8 -11.0°
Drops below altitude 10° 05:15:42 10° 171° (S) 1,446 -1.3 -10.6°
Sets 05:17:59 0° 157° (SSE) 2,302 -0.1 -10.2°
